Terug naar catalogus

INTELSAT 33E DEB

ActiefGEO
NORAD 61993·DEBRIS· XX

Gelanceerd Aug 24, 2016 vanaf Guiana Space Centre

Loading…

TLE

VersSource: Space-Track

Epoch: Sep 13, 2026, 14:35 UTC

1 61993U 16053K   26256.60802489 -.00000038  00000-0  00000-0 0  9993
2 61993   1.6865  75.3369 0083263 319.2946  40.9082  1.01202857  7034

Volg INTELSAT 33E DEB in realtime met AllMySat

Download on the App Store